Regional Weather Roundup
Issued by NWS Columbia, SC

Home | Current Version | Previous Version | Text Only | Print | Product List | Glossary On
Versions: 1 2 3 4 5 6 7 8 9 10 11 12 13 14 15 16 17 18 19 20 21 22 23 24 25 26 27 28 29 30 31 32 33 34 35 36 37 38 39 40 41 42 43 44 45 46 47 48 49 50
000
ASUS42 KCAE 302110
RWRCAE
REGIONAL WEATHER ROUNDUP
NATIONAL WEATHER SERVICE COLUMBIA SC
500 PM EDT WED JUL 30 2014

NOTE: "FAIR" INDICATES FEW OR NO CLOUDS BELOW 12,000 FEET WITH NO
SIGNIFICANT WEATHER AND/OR OBSTRUCTIONS TO VISIBILITY.

NOT ALL STATIONS ARE QUALITY CONTROLLED BY THE NATIONAL
WEATHER SERVICE. USE DATA WITH CAUTION...ESPECIALLY
DEWPOINT OBSERVATIONS.

SCZ001>056-GAZ040-063>065-077-302200-
...UPSTATE SOUTH CAROLINA...

CITY           SKY/WX    TMP DP  RH WIND       PRES   REMARKS
ANDERSON       MOSUNNY   84  58  40 NW8       30.03F
LIBERTY        FAIR      81  78  89 CALM      30.05S
SPARTANBURG    FAIR      82  59  44 NE3       30.04F
CLEMSON        MOSUNNY   84  55  36 NE5       30.05F
GREENVILLE     PTSUNNY   80  57  45 VRB3      30.06F
GREENWOOD      MOSUNNY   85  62  46 N8        30.03S
GREER          PTSUNNY   80  57  45 CALM      30.04F
ROCK HILL      MOSUNNY   83  59  44 N5        30.04F
CHESTER        MOCLDY    86  63  45 NE5       30.03F
LAURENS        FAIR      82  61  47 NE8       30.04S


...CENTRAL SOUTH CAROLINA...

CITY           SKY/WX    TMP DP  RH WIND       PRES   REMARKS
COLUMBIA APT   PTSUNNY   89  59  36 SE7       29.98S
COLUMBIA OWENS CLOUDY    87  62  43 SE3       29.99S
DARLINGTON     SUNNY     84  63  48 E7        30.01S
FLORENCE       CLOUDY    86  62  44 E7        30.00S
MCENTIRE ANGB  CLOUDY    83  67  58 S15       30.00R
ORANGEBURG     CLOUDY    75  69  81 E6        30.01F
SUMTER SHAW    PTSUNNY   85  64  50 E10       29.98S
NEWBERRY       FAIR      84  61  45 N5        30.03S
AIKEN          FAIR      86  68  54 E7        30.02F
BARNWELL       MOCLDY    82  66  57 E12       30.00R
MANNING        CLOUDY    72 N/A N/A SE7       30.01F
CAMDEN         FAIR      84  59  42 E7        30.00F
LANCASTER      FAIR      84  63  48 N6        30.02F
WINNSBORO      FAIR      86  59  39 NE7       30.00F


...EASTERN AND COASTAL SOUTH CAROLINA...

CITY           SKY/WX    TMP DP  RH WIND       PRES   REMARKS
MYRTLE BEACH   PTSUNNY   82  66  57 E14       30.00F
N MYRTLE BCH   PTSUNNY   83  66  56 E10G18    30.01S
CONWAY         CLOUDY    81  64  57 SE3       30.01R HAZE
MARION         MOCLDY    84  59  42 E5        30.00S
HARTSVILLE     FAIR      88  21   8 NE6       30.01F
FLORENCE       CLOUDY    86  62  44 E7        30.00S
DARLINGTON     SUNNY     84  63  48 E7        30.01S
CHARLESTON APT MOSUNNY   88  68  51 SE13G18   29.98S
MOUNT PLEASANT FAIR      84  70  61 E3        29.98F
WALTERBORO     MOCLDY    77  68  73 NW10      30.00R
BEAUFORT       PTSUNNY   84  69  60 SE9G18    29.97S


...EASTERN GEORGIA...

CITY           SKY/WX    TMP DP  RH WIND       PRES   REMARKS
AUGUSTA BUSH F MOSUNNY   88  63  43 SE6       29.96S
AUGUSTA DANIEL MOSUNNY   90  60  36 MISG      29.98S
THOMSON        PTSUNNY   91  66  44 CALM      30.03S
WASHINGTON     FAIR      88  63  42 NE5       30.00F
CLAXTON        CLOUDY    88  68  51 CALM      29.95F
SYLVANIA       MOCLDY    84  75  73 E3        29.98F
STATESBORO     PTSUNNY   87  71  58 SE9       29.96F
SAVANNAH       PTSUNNY   80  72  76 NE7       29.97F


...SOUTHERN NORTH CAROLINA...

CITY           SKY/WX    TMP DP  RH WIND       PRES   REMARKS
CHARLOTTE      PTSUNNY   84  58  40 VRB3      30.04F
MONROE         PTSUNNY   81  61  50 CALM      30.02F
WADESBORO      PTCLDY    86  56  35 CALM      30.01F
ROCKINGHAM       N/A     84  61  45 CALM      30.01F
RUTHERFORDTON  MOSUNNY   79  57  46 CALM      30.07S
ASHEVILLE      PTSUNNY   76  52  43 VRB3      30.11S

$$


USA.gov is the U.S. government's official web portal to all federal, state and local government web resources and services.